• In Uzbekistan
  • List of Countries
  • For 7 days
  • Water Temperature
  • Satellite Maps
  • Weather Map
  • Weather Widgets
  • user-avatar
    Login

    Hourly Weather Sfaks

    Today, 10 December, Monday

    Time Temperature Precipitation Wind Pressure Humidity
    00:00 +15°C° 0 mm 5 mps 768 mmHg 49%
    01:00 +15°C° 0 mm 5 mps 767 mmHg 50%
    02:00 +15°C° 0 mm 5 mps 767 mmHg 50%
    03:00 +15°C° 0 mm 5 mps 767 mmHg 50%
    04:00 +15°C° 0 mm 6 mps 767 mmHg 50%
    05:00 +14°C° 0 mm 6 mps 767 mmHg 51%
    06:00 +14°C° 0 mm 6 mps 767 mmHg 53%
    07:00 +14°C° 0 mm 6 mps 767 mmHg 54%
    08:00 +15°C° 0 mm 7 mps 767 mmHg 54%
    09:00 +16°C° 0 mm 7 mps 767 mmHg 53%
    10:00 +17°C° 0 mm 8 mps 767 mmHg 53%
    11:00 +18°C° 0 mm 8 mps 767 mmHg 47%
    12:00 +20°C° 0 mm 8 mps 767 mmHg 41%
    13:00 +21°C° 0 mm 8 mps 767 mmHg 35%
    14:00 +21°C° 0 mm 8 mps 767 mmHg 35%
    15:00 +21°C° 0 mm 8 mps 767 mmHg 35%
    16:00 +21°C° 0 mm 9 mps 766 mmHg 35%
    17:00 +18°C° 0 mm 8 mps 767 mmHg 39%
    18:00 +17°C° 0 mm 8 mps 767 mmHg 44%
    19:00 +16°C° 0 mm 8 mps 767 mmHg 49%
    20:00 +15°C° 0 mm 8 mps 767 mmHg 52%
    21:00 +15°C° 0 mm 7 mps 767 mmHg 56%
    22:00 +14°C° 0 mm 7 mps 767 mmHg 59%
    23:00 +14°C° 0 mm 6 mps 767 mmHg 61%

    Tomorrow, 11 December, Tuesday

    Time Temperature Precipitation Wind Pressure Humidity
    00:00 +13°C° 0 mm 6 mps 767 mmHg 63%
    01:00 +13°C° 0 mm 6 mps 767 mmHg 64%
    02:00 +13°C° 0 mm 6 mps 767 mmHg 65%
    03:00 +11°C° 0 mm 6 mps 767 mmHg 65%
    04:00 +11°C° 0 mm 6 mps 767 mmHg 65%
    05:00 +12°C° 0 mm 5 mps 767 mmHg 65%
    06:00 +12°C° 0 mm 5 mps 767 mmHg 64%
    07:00 +12°C° 0 mm 5 mps 767 mmHg 63%
    08:00 +13°C° 0 mm 5 mps 767 mmHg 58%
    09:00 +15°C° 0 mm 5 mps 767 mmHg 52%
    10:00 +17°C° 0 mm 4 mps 768 mmHg 47%
    11:00 +18°C° 0 mm 4 mps 767 mmHg 43%
    12:00 +19°C° 0 mm 4 mps 767 mmHg 39%
    13:00 +20°C° 0 mm 4 mps 766 mmHg 35%
    14:00 +20°C° 0 mm 4 mps 766 mmHg 35%
    15:00 +20°C° 0 mm 4 mps 766 mmHg 34%
    16:00 +21°C° 0 mm 4 mps 765 mmHg 33%
    17:00 +19°C° 0 mm 4 mps 765 mmHg 37%
    18:00 +18°C° 0 mm 4 mps 765 mmHg 40%
    19:00 +17°C° 0 mm 4 mps 765 mmHg 44%
    20:00 +17°C° 0 mm 4 mps 765 mmHg 46%
    21:00 +15°C° 0 mm 5 mps 766 mmHg 48%
    22:00 +15°C° 0 mm 5 mps 766 mmHg 49%
    23:00 +14°C° 0 mm 5 mps 765 mmHg 50%

    Day after tomorrow, 12 December, Wednesday

    Time Temperature Precipitation Wind Pressure Humidity
    00:00 +14°C° 0 mm 5 mps 765 mmHg 52%
    01:00 +13°C° 0 mm 5 mps 765 mmHg 53%
    02:00 +13°C° 0 mm 5 mps 765 mmHg 53%
    03:00 +13°C° 0 mm 4 mps 765 mmHg 54%
    04:00 +12°C° 0 mm 4 mps 764 mmHg 54%
    05:00 +12°C° 0 mm 4 mps 765 mmHg 57%
    06:00 +12°C° 0 mm 4 mps 765 mmHg 60%
    07:00 +11°C° 0 mm 3 mps 765 mmHg 63%
    08:00 +13°C° 0 mm 3 mps 765 mmHg 60%
    09:00 +14°C° 0 mm 3 mps 765 mmHg 58%
    10:00 +16°C° 0 mm 2 mps 766 mmHg 55%
    11:00 +18°C° 0 mm 2 mps 765 mmHg 50%
    12:00 +19°C° 0 mm 2 mps 765 mmHg 45%
    13:00 +20°C° 0 mm 2 mps 764 mmHg 40%
    14:00 +20°C° 0 mm 2 mps 764 mmHg 37%
    15:00 +20°C° 0 mm 2 mps 764 mmHg 35%
    16:00 +21°C° 0 mm 2 mps 764 mmHg 32%
    17:00 +20°C° 0 mm 2 mps 764 mmHg 34%
    18:00 +19°C° 0 mm 3 mps 764 mmHg 36%
    19:00 +17°C° 0 mm 3 mps 764 mmHg 39%
    20:00 +17°C° 0 mm 3 mps 764 mmHg 39%
    21:00 +17°C° 0 mm 4 mps 764 mmHg 39%
    22:00 +15°C° 0 mm 4 mps 764 mmHg 39%
    23:00 +15°C° 0 mm 4 mps 764 mmHg 40%

    13 December, Thursday

    Time Temperature Precipitation Wind Pressure Humidity
    00:00 +14°C° 0 mm 5 mps 764 mmHg 40%
    01:00 +14°C° 0 mm 5 mps 764 mmHg 41%
    02:00 +13°C° 0 mm 5 mps 764 mmHg 41%
    03:00 +13°C° 0 mm 5 mps 763 mmHg 42%
    04:00 +13°C° 0 mm 5 mps 763 mmHg 42%
    05:00 +12°C° 0 mm 5 mps 763 mmHg 43%
    06:00 +12°C° 0 mm 5 mps 763 mmHg 43%
    07:00 +12°C° 0 mm 5 mps 763 mmHg 43%
    08:00 +13°C° 0 mm 5 mps 763 mmHg 40%
    09:00 +15°C° 0 mm 6 mps 763 mmHg 36%
    10:00 +16°C° 0 mm 6 mps 763 mmHg 33%
    11:00 +17°C° 0 mm 6 mps 763 mmHg 30%
    12:00 +20°C° 0 mm 7 mps 762 mmHg 26%
    13:00 +21°C° 0 mm 7 mps 762 mmHg 23%
    14:00 +21°C° 0 mm 7 mps 761 mmHg 23%
    15:00 +21°C° 0 mm 7 mps 760 mmHg 23%
    16:00 +21°C° 0 mm 7 mps 760 mmHg 23%
    17:00 +20°C° 0 mm 7 mps 760 mmHg 26%
    18:00 +17°C° 0 mm 7 mps 760 mmHg 28%
    19:00 +16°C° 0 mm 7 mps 760 mmHg 31%
    20:00 +16°C° 0 mm 8 mps 760 mmHg 33%
    21:00 +15°C° 0 mm 8 mps 760 mmHg 35%
    22:00 +15°C° 0 mm 8 mps 760 mmHg 37%
    23:00 +13°C° 0 mm 8 mps 759 mmHg 38%

    14 December, Friday

    Time Temperature Precipitation Wind Pressure Humidity
    00:00 +13°C° 0 mm 8 mps 759 mmHg 40%
    01:00 +12°C° 0 mm 8 mps 758 mmHg 41%
    02:00 +12°C° 0 mm 8 mps 758 mmHg 43%
    03:00 +12°C° 0 mm 7 mps 757 mmHg 45%
    04:00 +11°C° 0 mm 7 mps 757 mmHg 46%
    05:00 +11°C° 0 mm 7 mps 756 mmHg 47%
    06:00 +11°C° 0 mm 7 mps 756 mmHg 47%
    07:00 +11°C° 0 mm 7 mps 756 mmHg 48%
    08:00 +12°C° 0 mm 7 mps 756 mmHg 45%
    09:00 +14°C° 0 mm 7 mps 756 mmHg 42%
    10:00 +14°C° 0 mm 6 mps 756 mmHg 39%
    11:00 +15°C° 0 mm 6 mps 756 mmHg 37%
    12:00 +16°C° 0 mm 5 mps 756 mmHg 35%
    13:00 +17°C° 0 mm 4 mps 756 mmHg 32%
    14:00 +17°C° 0 mm 4 mps 756 mmHg 33%
    15:00 +17°C° 0 mm 4 mps 756 mmHg 33%
    16:00 +17°C° 0 mm 3 mps 756 mmHg 34%
    17:00 +17°C° 0 mm 3 mps 756 mmHg 36%
    18:00 +16°C° 0 mm 3 mps 757 mmHg 39%
    19:00 +15°C° 0 mm 2 mps 757 mmHg 41%
    20:00 +14°C° 0 mm 3 mps 758 mmHg 49%
    21:00 +14°C° 0 mm 3 mps 758 mmHg 58%
    22:00 +14°C° 0 mm 4 mps 759 mmHg 66%
    23:00 +14°C° 0.1 mm 5 mps 758 mmHg 71%

    15 December, Saturday

    Time Temperature Precipitation Wind Pressure Humidity
    00:00 +14°C° 0.1 mm 6 mps 758 mmHg 76%
    01:00 +13°C° 0.1 mm 8 mps 758 mmHg 81%
    02:00 +12°C° 0.2 mm 9 mps 758 mmHg 80%
    03:00 +12°C° 0.2 mm 10 mps 758 mmHg 80%
    04:00 +12°C° 0.2 mm 11 mps 758 mmHg 79%
    05:00 +12°C° 0.2 mm 12 mps 759 mmHg 79%
    06:00 +12°C° 0.2 mm 12 mps 759 mmHg 79%
    07:00 +12°C° 0.2 mm 12 mps 760 mmHg 78%
    08:00 +13°C° 0.4 mm 12 mps 761 mmHg 74%
    09:00 +14°C° 0.4 mm 13 mps 761 mmHg 69%
    10:00 +15°C° 0.4 mm 13 mps 762 mmHg 64%
    11:00 +18°C° 0.5 mm 12 mps 762 mmHg 58%
    12:00 +19°C° 0.5 mm 12 mps 762 mmHg 52%
    13:00 +21°C° 0.5 mm 12 mps 762 mmHg 45%
    14:00 +21°C° 0.3 mm 12 mps 762 mmHg 45%
    15:00 +19°C° 0.3 mm 11 mps 763 mmHg 45%
    16:00 +19°C° 0.3 mm 11 mps 763 mmHg 45%
    17:00 +18°C° 0.4 mm 11 mps 764 mmHg 52%
    18:00 +17°C° 0.4 mm 11 mps 764 mmHg 59%
    19:00 +16°C° 0.4 mm 11 mps 765 mmHg 67%
    20:00 +16°C° 0.2 mm 11 mps 766 mmHg 70%
    21:00 +14°C° 0.2 mm 11 mps 766 mmHg 73%
    22:00 +14°C° 0.2 mm 11 mps 767 mmHg 77%
    23:00 +14°C° 0.1 mm 11 mps 767 mmHg 78%
    Show more